Погода в Лёвене

Бельгия     50°52′56″N   4°41′48″E
темп.,
°C
ветер,
м/с
пор.,
м/с
влажн.,
%
обл.,
%
осадки,
мм/ч
давл.,
гПа
погр.,
м
14 мая, пт
пт1423:00+10юз12774 0.0 100711
02:00+7ю22774 0.0 100723
05:00+6ююв22864 0.0 100716
08:00+9ююз23805 0.0 1008190
11:00+14ююз337059 0.3 10081024
14:00+15зюз346034 1.8 10081440
17:00+15юз456313 1.5 10071250
20:00+13юз36825 2.7 1007225
15 мая, сб
сб1523:00+8ююз34925 0.1 100853
02:00+7ююз369521 0.1 1007113
05:00+7юз499881 0.0 1006310
08:00+8ююз4790100 0.0 1006276
11:00+10ююз6990100 0.9 1005715
14:00+10юз5786100 2.1 1004987
17:00+9ююз4892100 0.6 1004804
20:00+11юз378634 0.9 1003583
16 мая, вс
вс1623:00+8ююз410943 0.2 1004228
02:00+7ююз411951 0.2 1004244
05:00+7ююз511963 0.0 1004353
08:00+9юз510927 0.0 1004557
11:00+12юз797863 0.5 10041091
14:00+14юз796481 1.0 10031609
17:00+14зюз6969100 1.9 10021386
20:00+12юз4784100 3.3 1002390
17 мая, пн
пн1723:00+10ююз41090100 1.1 1001346
02:00+9юз61392100 1.8 1002651
05:00+10ююз71489100 0.1 1001729
08:00+9ююз101892100 2.9 10011412
11:00+10юз101692100 0.8 1002993
14:00+14юз9138099 2.0 10031642
17:00+13зюз71182100 2.3 1004945
20:00+12зюз6118697 5.4 1005704
18 мая, вт
вт1823:00+10зюз7149499 0.6 1007684
02:00+9зюз71494100 0.6 1008629
05:00+8зюз6139534 0.0 1009579
08:00+9юз7129163 0.0 1010747
11:00+11зюз81279100 0.5 10111223
14:00+11зюз71084100 1.4 10121011
17:00+12з698157 1.8 10131151
20:00+11з5985100 3.9 1013616